Time,TemperatureF,DewpointF,PressureIn,WindDirection,WindDirectionDegrees,WindSpeedMPH,WindSpeedGustMPH,Humidity,HourlyPrecipIn,Conditions,Clouds,dailyrainin,SoftwareType,DateUTC
2018-01-18 00:04:00,52.1,62.8,30.19,NNW,337,11.4,13.2,59,0.00,,,0.00,,2018-01-18 05:04:00,
2018-01-18 00:09:00,51.9,62.8,30.19,NW,315,9.7,14.1,59,0.00,,,0.00,,2018-01-18 05:09:00,
2018-01-18 00:14:00,51.6,62.8,30.19,NNW,337,11.5,15.0,59,0.00,,,0.00,,2018-01-18 05:14:00,
2018-01-18 00:19:00,51.8,62.8,30.19,NW,315,8.5,11.9,58,0.00,,,0.00,,2018-01-18 05:19:00,
2018-01-18 00:24:00,51.6,62.8,30.19,WNW,292,10.4,11.9,58,0.00,,,0.00,,2018-01-18 05:24:00,
2018-01-18 00:29:00,50.8,62.8,30.19,NNW,337,13.9,16.1,59,0.00,,,0.00,,2018-01-18 05:29:00,
2018-01-18 00:34:00,50.5,62.8,30.19,NNW,337,13.6,14.1,60,0.00,,,0.00,,2018-01-18 05:34:00,
2018-01-18 00:39:00,50.2,62.7,30.19,NNW,337,13.7,18.8,60,0.00,,,0.00,,2018-01-18 05:39:00,
2018-01-18 00:44:00,50.0,62.7,30.19,NW,315,12.3,13.9,60,0.00,,,0.00,,2018-01-18 05:44:00,
2018-01-18 00:49:00,49.6,62.7,30.20,NNW,337,12.0,17.0,61,0.00,,,0.00,,2018-01-18 05:49:00,
2018-01-18 00:54:00,49.4,62.7,30.20,NW,315,11.2,11.6,62,0.00,,,0.00,,2018-01-18 05:54:00,
2018-01-18 00:59:00,49.1,62.7,30.20,NNW,337,12.5,16.1,63,0.00,,,0.00,,2018-01-18 05:59:00,
2018-01-18 01:04:00,49.3,62.7,30.20,NW,315,8.8,12.1,64,0.00,,,0.00,,2018-01-18 06:04:00,
2018-01-18 01:09:00,49.1,62.7,30.20,NNW,337,11.6,13.4,65,0.00,,,0.00,,2018-01-18 06:09:00,
2018-01-18 01:14:00,48.6,62.7,30.20,NNW,337,12.3,15.0,65,0.00,,,0.00,,2018-01-18 06:14:00,
2018-01-18 01:19:00,48.9,62.6,30.20,NNW,337,6.6,7.8,65,0.00,,,0.00,,2018-01-18 06:19:00,
2018-01-18 01:24:00,48.5,62.6,30.20,NNW,337,11.7,15.9,66,0.00,,,0.00,,2018-01-18 06:24:00,
2018-01-18 01:29:00,47.5,62.6,30.20,NNW,337,11.1,14.5,66,0.00,,,0.00,,2018-01-18 06:29:00,
2018-01-18 01:34:00,47.8,62.6,30.19,North,0,12.2,15.0,68,0.00,,,0.00,,2018-01-18 06:34:00,
2018-01-18 01:39:00,47.2,62.6,30.20,NNW,337,12.9,15.9,69,0.00,,,0.00,,2018-01-18 06:39:00,
2018-01-18 01:44:00,46.9,62.7,30.20,NNW,337,14.8,18.1,70,0.00,,,0.00,,2018-01-18 06:44:00,
2018-01-18 01:49:00,46.1,62.6,30.19,North,0,14.8,17.9,72,0.00,,,0.00,,2018-01-18 06:49:00,
2018-01-18 01:54:00,45.6,62.6,30.19,NNW,337,14.7,18.3,73,0.00,,,0.00,,2018-01-18 06:54:00,
2018-01-18 01:59:00,45.5,62.6,30.19,NNW,337,14.9,16.3,73,0.00,,,0.00,,2018-01-18 06:59:00,
2018-01-18 02:04:00,45.0,62.6,30.19,NNW,337,15.1,18.1,75,0.00,,,0.00,,2018-01-18 07:04:00,
2018-01-18 02:09:00,44.4,62.5,30.19,NNW,337,15.1,17.0,75,0.00,,,0.00,,2018-01-18 07:09:00,
2018-01-18 02:14:00,45.0,62.5,30.19,NNW,337,8.8,12.8,77,0.00,,,0.00,,2018-01-18 07:14:00,
2018-01-18 02:19:00,44.6,62.5,30.19,NW,315,12.3,13.2,76,0.00,,,0.00,,2018-01-18 07:19:00,
2018-01-18 02:24:00,44.0,62.5,30.19,NNE,22,12.9,19.7,77,0.00,,,0.00,,2018-01-18 07:24:00,
2018-01-18 02:29:00,43.6,62.5,30.18,NNW,337,14.3,14.3,79,0.00,,,0.00,,2018-01-18 07:29:00,
2018-01-18 02:34:00,43.5,62.5,30.18,NNW,337,11.9,16.6,79,0.00,,,0.00,,2018-01-18 07:34:00,
2018-01-18 02:39:00,43.3,62.5,30.18,North,0,13.7,13.9,80,0.00,,,0.00,,2018-01-18 07:39:00,
2018-01-18 02:44:00,43.8,62.5,30.18,NNW,337,10.5,14.1,81,0.00,,,0.00,,2018-01-18 07:44:00,
2018-01-18 02:49:00,43.4,62.4,30.18,NNW,337,11.8,17.7,80,0.00,,,0.00,,2018-01-18 07:49:00,
2018-01-18 02:54:00,43.0,62.4,30.18,North,0,11.9,13.6,81,0.00,,,0.00,,2018-01-18 07:54:00,
2018-01-18 02:59:00,43.6,62.4,30.18,NNW,337,9.1,11.0,81,0.00,,,0.00,,2018-01-18 07:59:00,
2018-01-18 03:04:00,43.7,62.4,30.19,NNW,337,13.2,17.7,82,0.00,,,0.00,,2018-01-18 08:04:00,
2018-01-18 03:09:00,43.8,62.4,30.18,NNW,337,8.2,14.3,82,0.00,,,0.00,,2018-01-18 08:09:00,
2018-01-18 03:14:00,43.4,62.3,30.18,NNW,337,9.3,12.5,82,0.00,,,0.00,,2018-01-18 08:14:00,
2018-01-18 03:19:00,43.1,62.4,30.18,NNW,337,10.1,13.0,82,0.00,,,0.00,,2018-01-18 08:19:00,
2018-01-18 03:24:00,43.3,62.3,30.18,NNW,337,9.9,12.3,84,0.00,,,0.00,,2018-01-18 08:24:00,
2018-01-18 03:29:00,42.7,62.3,30.19,NNW,337,11.3,15.9,83,0.00,,,0.00,,2018-01-18 08:29:00,
2018-01-18 03:34:00,42.4,62.3,30.18,NNW,337,13.8,19.2,84,0.00,,,0.00,,2018-01-18 08:34:00,
2018-01-18 03:39:00,42.8,62.2,30.19,NW,315,8.8,11.4,85,0.00,,,0.00,,2018-01-18 08:39:00,
2018-01-18 03:44:00,42.2,62.2,30.19,NNW,337,12.5,13.9,85,0.00,,,0.00,,2018-01-18 08:44:00,
2018-01-18 03:49:00,42.4,62.3,30.19,NNW,337,8.4,17.7,85,0.00,,,0.00,,2018-01-18 08:49:00,
2018-01-18 03:54:00,42.5,62.2,30.19,NNW,337,10.4,11.4,86,0.00,,,0.00,,2018-01-18 08:54:00,
2018-01-18 03:59:00,42.1,62.2,30.19,North,0,10.8,18.3,86,0.00,,,0.00,,2018-01-18 08:59:00,
2018-01-18 04:04:00,41.9,62.2,30.19,NNW,337,8.2,10.7,87,0.00,,,0.00,,2018-01-18 09:04:00,
2018-01-18 04:09:00,42.2,62.2,30.20,North,0,8.9,11.0,87,0.00,,,0.00,,2018-01-18 09:09:00,
2018-01-18 04:14:00,41.9,62.2,30.20,NW,315,12.7,17.4,85,0.00,,,0.00,,2018-01-18 09:14:00,
2018-01-18 04:19:00,41.1,62.1,30.19,North,0,13.1,19.0,85,0.00,,,0.00,,2018-01-18 09:19:00,
2018-01-18 04:24:00,41.2,62.2,30.19,North,0,12.0,12.8,83,0.00,,,0.00,,2018-01-18 09:24:00,
2018-01-18 04:29:00,40.7,62.2,30.19,NNW,337,15.8,18.1,79,0.00,,,0.00,,2018-01-18 09:29:00,
2018-01-18 04:34:00,40.4,62.2,30.20,NNW,337,12.7,13.6,75,0.00,,,0.00,,2018-01-18 09:34:00,
2018-01-18 04:39:00,40.3,62.2,30.20,NNW,337,12.1,17.7,75,0.00,,,0.00,,2018-01-18 09:39:00,
2018-01-18 04:44:00,40.6,62.1,30.20,NW,315,10.9,11.9,76,0.00,,,0.00,,2018-01-18 09:44:00,
2018-01-18 04:49:00,40.5,62.1,30.20,North,0,13.3,15.7,71,0.00,,,0.00,,2018-01-18 09:49:00,
2018-01-18 04:54:00,39.5,62.1,30.20,NNW,337,16.5,16.5,63,0.00,,,0.00,,2018-01-18 09:54:00,
2018-01-18 04:59:00,38.7,62.1,30.20,NNW,337,15.9,23.5,63,0.00,,,0.00,,2018-01-18 09:59:00,
2018-01-18 05:04:00,38.1,62.1,30.20,North,0,13.1,19.7,64,0.00,,,0.00,,2018-01-18 10:04:00,
2018-01-18 05:09:00,38.6,62.0,30.20,NNW,337,11.0,14.3,65,0.00,,,0.00,,2018-01-18 10:09:00,
2018-01-18 05:14:00,38.4,62.0,30.20,North,0,14.2,18.1,64,0.00,,,0.00,,2018-01-18 10:14:00,
2018-01-18 05:19:00,37.7,62.1,30.20,NNW,337,11.6,14.1,65,0.00,,,0.00,,2018-01-18 10:19:00,
2018-01-18 05:24:00,37.0,62.0,30.20,North,0,15.4,20.8,63,0.00,,,0.00,,2018-01-18 10:24:00,
2018-01-18 05:29:00,37.5,62.0,30.20,North,0,7.3,11.0,66,0.00,,,0.00,,2018-01-18 10:29:00,
2018-01-18 05:34:00,37.6,62.0,30.20,NNW,337,11.5,14.5,65,0.00,,,0.00,,2018-01-18 10:34:00,
2018-01-18 05:39:00,36.9,61.9,30.20,NNW,337,12.1,14.3,66,0.00,,,0.00,,2018-01-18 10:39:00,
2018-01-18 05:44:00,37.1,61.9,30.21,NNW,337,9.8,16.8,65,0.00,,,0.00,,2018-01-18 10:44:00,
2018-01-18 05:49:00,36.1,61.9,30.21,NNW,337,13.9,19.5,66,0.00,,,0.00,,2018-01-18 10:49:00,
2018-01-18 05:54:00,36.6,61.8,30.21,NNW,337,9.1,14.5,67,0.00,,,0.00,,2018-01-18 10:54:00,
2018-01-18 05:59:00,36.6,61.8,30.21,North,0,14.2,16.3,67,0.00,,,0.00,,2018-01-18 10:59:00,
2018-01-18 06:04:00,37.0,61.8,30.22,NNW,337,10.3,15.4,67,0.00,,,0.00,,2018-01-18 11:04:00,
2018-01-18 06:09:00,36.8,61.8,30.22,NNW,337,11.2,13.6,67,0.00,,,0.00,,2018-01-18 11:09:00,
2018-01-18 06:14:00,36.0,61.8,30.22,NNW,337,11.3,14.8,67,0.00,,,0.00,,2018-01-18 11:14:00,
2018-01-18 06:19:00,36.6,61.8,30.22,NNW,337,9.2,12.1,70,0.00,,,0.00,,2018-01-18 11:19:00,
2018-01-18 06:24:00,36.5,61.7,30.22,NNW,337,11.2,14.8,68,0.00,,,0.00,,2018-01-18 11:24:00,
2018-01-18 06:29:00,36.3,61.7,30.22,North,0,12.8,14.8,69,0.00,,,0.00,,2018-01-18 11:29:00,
2018-01-18 06:34:00,36.0,61.7,30.22,NNW,337,11.7,16.3,69,0.00,,,0.00,,2018-01-18 11:34:00,
2018-01-18 06:39:00,36.4,61.7,30.22,NNW,337,9.3,11.4,71,0.00,,,0.00,,2018-01-18 11:39:00,
2018-01-18 06:44:00,35.9,61.7,30.22,NNW,337,9.8,14.1,71,0.00,,,0.00,,2018-01-18 11:44:00,
2018-01-18 06:49:00,35.9,61.7,30.22,North,0,9.6,9.8,71,0.00,,,0.00,,2018-01-18 11:49:00,
2018-01-18 06:54:00,35.9,61.7,30.23,NNW,337,11.5,15.7,72,0.00,,,0.00,,2018-01-18 11:54:00,
2018-01-18 06:59:00,35.6,61.6,30.22,NNW,337,14.0,14.3,72,0.00,,,0.00,,2018-01-18 11:59:00,
2018-01-18 07:04:00,35.7,61.6,30.23,NNW,337,13.4,16.3,75,0.00,,,0.00,,2018-01-18 12:04:00,
2018-01-18 07:09:00,35.8,61.6,30.23,NNW,337,14.9,17.7,74,0.00,,,0.00,,2018-01-18 12:09:00,
2018-01-18 07:14:00,35.2,61.6,30.23,NW,315,12.0,18.3,73,0.00,,,0.00,,2018-01-18 12:14:00,
2018-01-18 07:19:00,35.7,61.6,30.23,North,0,11.9,15.7,74,0.00,,,0.00,,2018-01-18 12:19:00,
2018-01-18 07:24:00,36.1,61.6,30.24,NNW,337,7.5,11.0,74,0.00,,,0.00,,2018-01-18 12:24:00,
2018-01-18 07:29:00,35.7,61.5,30.24,North,0,10.9,17.9,74,0.00,,,0.00,,2018-01-18 12:29:00,
2018-01-18 07:34:00,36.2,61.5,30.24,NNW,337,8.7,11.9,74,0.00,,,0.00,,2018-01-18 12:34:00,
2018-01-18 07:39:00,35.5,61.6,30.24,North,0,14.7,20.4,75,0.00,,,0.00,,2018-01-18 12:39:00,
2018-01-18 07:44:00,35.3,61.5,30.25,North,0,9.3,16.3,74,0.00,,,0.00,,2018-01-18 12:44:00,
2018-01-18 07:49:00,36.5,61.6,30.25,NW,315,9.7,11.9,76,0.00,,,0.00,,2018-01-18 12:49:00,
2018-01-18 07:54:00,36.7,61.6,30.25,NNW,337,9.7,12.1,74,0.00,,,0.00,,2018-01-18 12:54:00,
2018-01-18 07:59:00,35.5,61.6,30.25,North,0,14.7,17.2,73,0.00,,,0.00,,2018-01-18 12:59:00,
2018-01-18 08:04:00,36.4,61.5,30.25,NNW,337,15.6,18.1,74,0.00,,,0.00,,2018-01-18 13:04:00,
2018-01-18 08:09:00,36.5,61.6,30.25,North,0,9.8,19.0,74,0.00,,,0.00,,2018-01-18 13:09:00,
2018-01-18 08:14:00,36.9,61.6,30.25,NNW,337,11.9,13.4,74,0.00,,,0.00,,2018-01-18 13:14:00,
2018-01-18 08:19:00,36.6,61.6,30.25,NNW,337,9.4,15.7,74,0.00,,,0.00,,2018-01-18 13:19:00,
2018-01-18 08:24:00,37.4,61.6,30.26,NNW,337,9.4,11.6,75,0.00,,,0.00,,2018-01-18 13:24:00,
2018-01-18 08:29:00,37.7,61.6,30.26,NNW,337,11.9,15.4,72,0.00,,,0.00,,2018-01-18 13:29:00,
2018-01-18 08:34:00,38.0,61.6,30.26,NNW,337,11.4,14.3,72,0.00,,,0.00,,2018-01-18 13:34:00,
2018-01-18 08:39:00,37.6,61.6,30.26,NNW,337,16.6,19.0,73,0.00,,,0.00,,2018-01-18 13:39:00,
2018-01-18 08:44:00,37.0,61.6,30.26,North,0,12.3,15.0,75,0.00,,,0.00,,2018-01-18 13:44:00,
2018-01-18 08:49:00,38.0,61.7,30.27,North,0,10.3,13.0,76,0.00,,,0.00,,2018-01-18 13:49:00,
2018-01-18 08:54:00,38.2,61.7,30.27,North,0,15.6,18.1,73,0.00,,,0.00,,2018-01-18 13:54:00,
2018-01-18 08:59:00,38.9,61.7,30.27,NNW,337,10.7,13.4,73,0.00,,,0.00,,2018-01-18 13:59:00,
2018-01-18 09:04:00,38.7,61.7,30.27,North,0,11.3,11.4,74,0.00,,,0.00,,2018-01-18 14:04:00,
2018-01-18 09:09:00,39.1,61.7,30.27,NNW,337,11.6,14.3,73,0.00,,,0.00,,2018-01-18 14:09:00,
2018-01-18 09:14:00,39.6,61.8,30.27,North,0,12.6,13.2,72,0.00,,,0.00,,2018-01-18 14:14:00,
2018-01-18 09:19:00,39.8,61.8,30.27,North,0,14.4,20.1,73,0.00,,,0.00,,2018-01-18 14:19:00,
2018-01-18 09:24:00,39.2,61.8,30.28,North,0,13.1,18.6,74,0.00,,,0.00,,2018-01-18 14:24:00,
2018-01-18 09:29:00,39.9,61.8,30.28,North,0,16.8,20.1,72,0.00,,,0.00,,2018-01-18 14:29:00,
2018-01-18 09:34:00,39.8,61.8,30.28,NNE,22,14.8,21.9,73,0.00,,,0.00,,2018-01-18 14:34:00,
2018-01-18 09:39:00,39.1,61.8,30.28,NNW,337,17.8,23.7,72,0.00,,,0.00,,2018-01-18 14:39:00,
2018-01-18 09:44:00,39.1,61.9,30.28,North,0,15.0,17.7,73,0.00,,,0.00,,2018-01-18 14:44:00,
2018-01-18 09:50:00,39.4,61.9,30.28,NNE,22,13.2,19.7,73,0.00,,,0.00,,2018-01-18 14:50:00,
2018-01-18 09:54:00,40.0,62.0,30.28,NNW,337,18.3,22.1,74,0.00,,,0.00,,2018-01-18 14:54:00,
2018-01-18 09:59:00,40.1,61.9,30.28,North,0,14.5,18.3,73,0.00,,,0.00,,2018-01-18 14:59:00,
2018-01-18 10:04:00,41.3,62.0,30.29,North,0,15.9,22.1,72,0.00,,,0.00,,2018-01-18 15:04:00,
2018-01-18 10:09:00,41.7,62.0,30.28,NW,315,12.8,13.9,73,0.00,,,0.00,,2018-01-18 15:09:00,
2018-01-18 10:14:00,41.5,62.0,30.28,NNE,22,12.1,15.4,73,0.00,,,0.00,,2018-01-18 15:14:00,
2018-01-18 10:20:00,42.6,62.0,30.29,North,0,12.6,15.7,71,0.00,,,0.00,,2018-01-18 15:20:00,
2018-01-18 10:25:00,42.4,62.0,30.29,North,0,11.3,15.4,72,0.00,,,0.00,,2018-01-18 15:25:00,
2018-01-18 10:30:00,42.8,62.1,30.29,NNW,337,15.9,18.8,71,0.00,,,0.00,,2018-01-18 15:30:00,
2018-01-18 10:35:00,43.0,62.1,30.29,North,0,13.3,15.4,73,0.00,,,0.00,,2018-01-18 15:35:00,
2018-01-18 10:40:00,42.7,62.2,30.28,NNW,337,14.7,17.7,71,0.00,,,0.00,,2018-01-18 15:40:00,
2018-01-18 10:43:00,43.5,62.1,30.28,NNW,337,16.8,20.4,70,0.00,,,0.00,,2018-01-18 15:43:00,
2018-01-18 10:48:00,43.8,62.1,30.28,North,0,14.8,16.8,70,0.00,,,0.00,,2018-01-18 15:48:00,
2018-01-18 10:53:00,44.5,62.2,30.28,North,0,15.1,19.2,69,0.00,,,0.00,,2018-01-18 15:53:00,
2018-01-18 10:58:00,43.8,62.2,30.28,North,0,8.6,11.2,70,0.00,,,0.00,,2018-01-18 15:58:00,
2018-01-18 11:03:00,44.7,62.2,30.28,NNW,337,14.3,18.6,71,0.00,,,0.00,,2018-01-18 16:03:00,
2018-01-18 11:08:00,45.3,62.2,30.28,NNE,22,8.0,11.4,70,0.00,,,0.00,,2018-01-18 16:08:00,
2018-01-18 11:13:00,45.2,62.2,30.28,NNW,337,13.1,16.6,69,0.00,,,0.00,,2018-01-18 16:13:00,
2018-01-18 11:18:00,44.5,62.3,30.28,North,0,11.5,17.2,69,0.00,,,0.00,,2018-01-18 16:18:00,
2018-01-18 11:23:00,45.2,62.3,30.28,North,0,12.4,17.0,68,0.00,,,0.00,,2018-01-18 16:23:00,
2018-01-18 11:28:00,45.3,62.3,30.27,North,0,19.2,22.6,69,0.00,,,0.00,,2018-01-18 16:28:00,
2018-01-18 11:33:00,46.1,62.3,30.27,North,0,11.0,14.1,70,0.00,,,0.00,,2018-01-18 16:33:00,
2018-01-18 11:38:00,46.4,62.4,30.27,NNW,337,13.8,15.7,68,0.00,,,0.00,,2018-01-18 16:38:00,
2018-01-18 11:43:00,47.3,62.4,30.27,NNW,337,10.0,15.0,67,0.00,,,0.00,,2018-01-18 16:43:00,
2018-01-18 11:48:00,46.6,62.4,30.26,NNE,22,10.5,11.9,67,0.00,,,0.00,,2018-01-18 16:48:00,
2018-01-18 11:53:00,46.8,62.4,30.26,North,0,14.1,18.3,67,0.00,,,0.00,,2018-01-18 16:53:00,
2018-01-18 11:58:00,47.5,62.4,30.26,North,0,12.6,13.6,69,0.00,,,0.00,,2018-01-18 16:58:00,
2018-01-18 12:03:00,47.9,62.4,30.26,NNW,337,11.2,15.0,67,0.00,,,0.00,,2018-01-18 17:03:00,
2018-01-18 12:08:00,48.5,62.4,30.26,North,0,16.8,20.8,67,0.00,,,0.00,,2018-01-18 17:08:00,
2018-01-18 12:13:00,48.5,62.5,30.26,NNE,22,14.3,23.0,67,0.00,,,0.00,,2018-01-18 17:13:00,
2018-01-18 12:18:00,48.5,62.4,30.25,North,0,16.1,17.4,66,0.00,,,0.00,,2018-01-18 17:18:00,
2018-01-18 12:23:00,48.7,62.5,30.25,NNW,337,16.3,20.8,67,0.00,,,0.00,,2018-01-18 17:23:00,
2018-01-18 12:28:00,49.8,62.5,30.25,NNE,22,17.2,19.0,69,0.00,,,0.00,,2018-01-18 17:28:00,
2018-01-18 12:33:00,49.1,62.5,30.25,North,0,14.8,23.7,66,0.00,,,0.00,,2018-01-18 17:33:00,
2018-01-18 12:38:00,49.6,62.5,30.24,North,0,16.9,17.4,68,0.00,,,0.00,,2018-01-18 17:38:00,
2018-01-18 12:43:00,49.2,62.5,30.24,NNE,22,16.6,18.8,67,0.00,,,0.00,,2018-01-18 17:43:00,
2018-01-18 12:48:00,50.0,62.5,30.24,North,0,12.1,19.0,67,0.00,,,0.00,,2018-01-18 17:48:00,
2018-01-18 12:53:00,49.6,62.6,30.23,NNW,337,12.8,14.1,67,0.00,,,0.00,,2018-01-18 17:53:00,
2018-01-18 12:58:00,50.8,62.5,30.23,WSW,247,13.0,18.3,66,0.00,,,0.00,,2018-01-18 17:58:00,
2018-01-18 13:03:00,50.9,62.6,30.23,WSW,247,13.3,15.7,67,0.00,,,0.00,,2018-01-18 18:03:00,
2018-01-18 13:08:00,50.3,62.6,30.23,WSW,247,17.1,21.0,68,0.00,,,0.00,,2018-01-18 18:08:00,
2018-01-18 13:13:00,50.7,62.6,30.22,WSW,247,13.2,15.2,67,0.00,,,0.00,,2018-01-18 18:13:00,
2018-01-18 13:18:00,50.7,62.6,30.22,WSW,247,14.6,19.0,68,0.00,,,0.00,,2018-01-18 18:18:00,
2018-01-18 13:23:00,51.4,62.5,30.22,WSW,247,14.9,18.3,69,0.00,,,0.00,,2018-01-18 18:23:00,
2018-01-18 13:28:00,51.0,62.5,30.22,WSW,247,16.0,22.4,67,0.00,,,0.00,,2018-01-18 18:28:00,
2018-01-18 13:33:00,50.0,62.5,30.22,WSW,247,18.3,21.3,68,0.00,,,0.00,,2018-01-18 18:33:00,
2018-01-18 13:38:00,50.9,62.6,30.22,WSW,247,9.4,18.3,66,0.00,,,0.00,,2018-01-18 18:38:00,
2018-01-18 13:43:00,50.7,62.6,30.21,WSW,247,12.7,14.3,68,0.00,,,0.00,,2018-01-18 18:43:00,
2018-01-18 13:48:00,52.3,62.5,30.21,WSW,247,14.1,18.3,67,0.00,,,0.00,,2018-01-18 18:48:00,
2018-01-18 13:53:00,51.7,62.5,30.21,WSW,247,15.3,20.4,67,0.00,,,0.00,,2018-01-18 18:53:00,
2018-01-18 13:58:00,51.7,62.5,30.21,WSW,247,15.0,24.2,68,0.00,,,0.00,,2018-01-18 18:58:00,
2018-01-18 14:03:00,53.4,62.5,30.21,WSW,247,14.4,15.9,67,0.00,,,0.00,,2018-01-18 19:03:00,
2018-01-18 14:08:00,52.6,62.5,30.21,WSW,247,18.4,22.1,66,0.00,,,0.00,,2018-01-18 19:08:00,
2018-01-18 14:13:00,52.7,62.5,30.20,WSW,247,11.5,12.8,67,0.00,,,0.00,,2018-01-18 19:13:00,
2018-01-18 14:18:00,53.1,62.5,30.20,WSW,247,9.8,15.7,67,0.00,,,0.00,,2018-01-18 19:18:00,
2018-01-18 14:23:00,54.0,62.4,30.20,WSW,247,12.8,14.8,66,0.00,,,0.00,,2018-01-18 19:23:00,
2018-01-18 14:28:00,51.9,62.5,30.19,North,0,22.2,26.2,65,0.00,,,0.00,,2018-01-18 19:28:00,
2018-01-18 14:33:00,52.8,62.5,30.19,WSW,247,15.0,18.3,68,0.00,,,0.00,,2018-01-18 19:33:00,
2018-01-18 14:38:00,53.8,62.5,30.20,NNE,22,18.4,22.4,67,0.00,,,0.00,,2018-01-18 19:38:00,
2018-01-18 14:43:00,52.0,62.4,30.20,WSW,247,17.2,17.2,68,0.00,,,0.00,,2018-01-18 19:43:00,
2018-01-18 14:48:00,53.2,62.5,30.20,WSW,247,16.5,20.8,69,0.00,,,0.00,,2018-01-18 19:48:00,
2018-01-18 14:53:00,53.2,62.5,30.20,WSW,247,15.3,15.3,67,0.00,,,0.00,,2018-01-18 19:53:00,
2018-01-18 14:58:00,54.8,62.4,30.19,WSW,247,14.4,16.6,67,0.00,,,0.00,,2018-01-18 19:58:00,
2018-01-18 15:03:00,53.1,62.4,30.19,WSW,247,15.7,17.0,66,0.00,,,0.00,,2018-01-18 20:03:00,
2018-01-18 15:08:00,54.2,62.5,30.19,WSW,247,15.2,18.8,67,0.00,,,0.00,,2018-01-18 20:08:00,
2018-01-18 15:13:00,52.9,62.5,30.19,WSW,247,16.7,20.8,67,0.00,,,0.00,,2018-01-18 20:13:00,
2018-01-18 15:18:00,53.8,62.5,30.19,WSW,247,11.5,14.5,68,0.00,,,0.00,,2018-01-18 20:18:00,
2018-01-18 15:23:00,53.7,62.5,30.19,WSW,247,12.8,19.2,68,0.00,,,0.00,,2018-01-18 20:23:00,
2018-01-18 15:28:00,53.8,62.5,30.19,WSW,247,16.3,19.0,66,0.00,,,0.00,,2018-01-18 20:28:00,
2018-01-18 15:33:00,53.5,62.5,30.19,WSW,247,14.2,18.3,67,0.00,,,0.00,,2018-01-18 20:33:00,
2018-01-18 15:38:00,53.2,62.5,30.19,WSW,247,14.4,18.6,67,0.00,,,0.00,,2018-01-18 20:38:00,
2018-01-18 15:44:00,54.5,62.5,30.19,WSW,247,15.9,19.2,66,0.00,,,0.00,,2018-01-18 20:44:00,
2018-01-18 15:49:00,55.2,62.4,30.19,WSW,247,12.9,18.6,66,0.00,,,0.00,,2018-01-18 20:49:00,
2018-01-18 15:54:00,53.5,62.4,30.19,WSW,247,15.6,16.3,66,0.00,,,0.00,,2018-01-18 20:54:00,
2018-01-18 15:59:00,53.0,62.4,30.19,WSW,247,10.6,16.6,67,0.00,,,0.00,,2018-01-18 20:59:00,
2018-01-18 16:04:00,52.4,62.4,30.19,WSW,247,20.0,24.8,66,0.00,,,0.00,,2018-01-18 21:04:00,
2018-01-18 16:09:00,53.8,62.4,30.19,WSW,247,10.6,14.5,68,0.00,,,0.00,,2018-01-18 21:09:00,
2018-01-18 16:14:00,53.7,62.4,30.19,WSW,247,14.3,17.0,67,0.00,,,0.00,,2018-01-18 21:14:00,
2018-01-18 16:19:00,54.1,62.4,30.20,WSW,247,12.6,15.0,67,0.00,,,0.00,,2018-01-18 21:19:00,
2018-01-18 16:24:00,55.0,62.4,30.19,WSW,247,15.3,18.1,67,0.00,,,0.00,,2018-01-18 21:24:00,
2018-01-18 16:29:00,54.6,62.4,30.19,WSW,247,10.3,11.4,66,0.00,,,0.00,,2018-01-18 21:29:00,
2018-01-18 16:34:00,53.5,62.4,30.19,WSW,247,10.0,18.6,67,0.00,,,0.00,,2018-01-18 21:34:00,
2018-01-18 16:39:00,54.5,62.4,30.19,WSW,247,11.6,13.2,67,0.00,,,0.00,,2018-01-18 21:39:00,
2018-01-18 16:44:00,53.6,62.4,30.19,WSW,247,15.1,19.2,67,0.00,,,0.00,,2018-01-18 21:44:00,
2018-01-18 16:49:00,55.2,62.3,30.19,WSW,247,10.9,13.4,68,0.00,,,0.00,,2018-01-18 21:49:00,
2018-01-18 16:54:00,54.8,62.3,30.19,WSW,247,10.1,14.8,67,0.00,,,0.00,,2018-01-18 21:54:00,
2018-01-18 16:59:00,54.9,62.2,30.19,WSW,247,10.5,12.5,68,0.00,,,0.00,,2018-01-18 21:59:00,
2018-01-18 17:04:00,54.1,62.3,30.19,WSW,247,8.2,9.8,67,0.00,,,0.00,,2018-01-18 22:04:00,
2018-01-18 17:09:00,53.9,62.3,30.19,WSW,247,9.3,11.6,68,0.00,,,0.00,,2018-01-18 22:09:00,
2018-01-18 17:14:00,53.2,62.1,30.20,WSW,247,10.4,15.0,68,0.00,,,0.00,,2018-01-18 22:14:00,
2018-01-18 17:19:00,53.3,62.2,30.20,WSW,247,10.8,15.0,69,0.00,,,0.00,,2018-01-18 22:19:00,
2018-01-18 17:24:00,52.6,62.1,30.20,WSW,247,11.9,14.3,69,0.00,,,0.00,,2018-01-18 22:24:00,
2018-01-18 17:29:00,52.3,62.2,30.20,North,0,13.3,14.5,69,0.00,,,0.00,,2018-01-18 22:29:00,
2018-01-18 17:34:00,52.1,62.2,30.20,North,0,11.8,13.6,70,0.00,,,0.00,,2018-01-18 22:34:00,
2018-01-18 17:39:00,51.7,62.1,30.20,North,0,10.3,11.9,72,0.00,,,0.00,,2018-01-18 22:39:00,
2018-01-18 17:44:00,52.0,62.1,30.20,NNE,22,12.7,17.9,72,0.00,,,0.00,,2018-01-18 22:44:00,
2018-01-18 17:49:00,51.5,62.1,30.20,North,0,9.9,11.0,71,0.00,,,0.00,,2018-01-18 22:49:00,
2018-01-18 17:54:00,50.9,62.0,30.19,NNE,22,14.1,16.3,71,0.00,,,0.00,,2018-01-18 22:54:00,
2018-01-18 17:59:00,50.5,62.0,30.20,North,0,11.3,11.4,72,0.00,,,0.00,,2018-01-18 22:59:00,
2018-01-18 18:04:00,50.7,62.0,30.20,North,0,10.7,12.8,73,0.00,,,0.00,,2018-01-18 23:04:00,
2018-01-18 18:09:00,49.8,62.0,30.20,North,0,12.8,13.9,74,0.00,,,0.00,,2018-01-18 23:09:00,
2018-01-18 18:14:00,50.2,62.0,30.20,North,0,10.3,12.3,74,0.00,,,0.00,,2018-01-18 23:14:00,
2018-01-18 18:19:00,50.0,62.0,30.20,North,0,10.7,11.4,75,0.00,,,0.00,,2018-01-18 23:19:00,
2018-01-18 18:24:00,49.3,61.9,30.20,North,0,13.3,15.9,75,0.00,,,0.00,,2018-01-18 23:24:00,
2018-01-18 18:29:00,49.8,61.9,30.20,North,0,11.1,13.4,75,0.00,,,0.00,,2018-01-18 23:29:00,
2018-01-18 18:34:00,49.4,61.9,30.20,North,0,10.7,13.9,76,0.00,,,0.00,,2018-01-18 23:34:00,
2018-01-18 18:39:00,48.9,61.9,30.21,NNE,22,16.3,21.7,74,0.00,,,0.00,,2018-01-18 23:39:00,
2018-01-18 18:44:00,48.8,61.8,30.21,North,0,12.9,17.4,76,0.00,,,0.00,,2018-01-18 23:44:00,
2018-01-18 18:49:00,48.4,61.8,30.21,NNE,22,14.2,22.1,75,0.00,,,0.00,,2018-01-18 23:49:00,
2018-01-18 18:54:00,48.6,61.8,30.20,North,0,12.2,16.3,76,0.00,,,0.00,,2018-01-18 23:54:00,
2018-01-18 18:59:00,47.9,61.8,30.20,NNE,22,17.4,20.6,76,0.00,,,0.00,,2018-01-18 23:59:00,
2018-01-18 19:04:00,48.2,61.8,30.21,North,0,11.6,14.8,76,0.00,,,0.00,,2018-01-19 00:04:00,
2018-01-18 19:09:00,48.4,61.8,30.21,NNW,337,11.5,15.2,77,0.00,,,0.00,,2018-01-19 00:09:00,
2018-01-18 19:14:00,48.7,61.8,30.21,North,0,9.5,10.3,77,0.00,,,0.00,,2018-01-19 00:14:00,
2018-01-18 19:19:00,48.0,61.8,30.21,North,0,14.8,18.1,76,0.00,,,0.00,,2018-01-19 00:19:00,
2018-01-18 19:24:00,48.4,61.8,30.22,North,0,7.6,8.7,77,0.00,,,0.00,,2018-01-19 00:24:00,
2018-01-18 19:29:00,47.8,61.7,30.22,NNW,337,14.7,17.2,76,0.00,,,0.00,,2018-01-19 00:29:00,
2018-01-18 19:34:00,47.7,61.7,30.22,North,0,13.2,16.1,76,0.00,,,0.00,,2018-01-19 00:34:00,
2018-01-18 19:39:00,47.6,61.7,30.22,North,0,15.3,22.8,77,0.00,,,0.00,,2018-01-19 00:39:00,
2018-01-18 19:44:00,47.7,61.7,30.23,North,0,11.1,13.6,77,0.00,,,0.00,,2018-01-19 00:44:00,
2018-01-18 19:49:00,47.8,61.7,30.23,North,0,10.4,13.4,77,0.00,,,0.00,,2018-01-19 00:49:00,
2018-01-18 19:54:00,47.8,61.7,30.23,North,0,11.9,13.9,75,0.00,,,0.00,,2018-01-19 00:54:00,
2018-01-18 19:59:00,48.4,61.7,30.23,North,0,10.9,15.4,77,0.00,,,0.00,,2018-01-19 00:59:00,
2018-01-18 20:04:00,47.2,61.7,30.23,NNW,337,14.6,15.4,77,0.00,,,0.00,,2018-01-19 01:04:00,
2018-01-18 20:09:00,47.1,61.6,30.23,North,0,11.6,16.3,77,0.00,,,0.00,,2018-01-19 01:09:00,
2018-01-18 20:14:00,47.2,61.6,30.24,North,0,15.4,18.3,77,0.00,,,0.00,,2018-01-19 01:14:00,
2018-01-18 20:19:00,47.2,61.6,30.24,NNW,337,11.8,15.0,78,0.00,,,0.00,,2018-01-19 01:19:00,
2018-01-18 20:24:00,47.2,61.6,30.24,NNE,22,10.2,13.9,78,0.00,,,0.00,,2018-01-19 01:24:00,
2018-01-18 20:29:00,46.5,61.6,30.24,North,0,14.7,17.9,78,0.00,,,0.00,,2018-01-19 01:29:00,
2018-01-18 20:34:00,46.3,61.6,30.24,NNW,337,14.6,19.2,77,0.00,,,0.00,,2018-01-19 01:34:00,
2018-01-18 20:39:00,46.2,61.6,30.24,North,0,12.3,16.8,78,0.00,,,0.00,,2018-01-19 01:39:00,
2018-01-18 20:44:00,46.7,61.6,30.24,NNE,22,11.2,15.7,78,0.00,,,0.00,,2018-01-19 01:44:00,
2018-01-18 20:49:00,46.6,61.6,30.24,North,0,11.5,17.2,78,0.00,,,0.00,,2018-01-19 01:49:00,
2018-01-18 20:54:00,46.5,61.6,30.25,NNW,337,13.0,17.7,78,0.00,,,0.00,,2018-01-19 01:54:00,
2018-01-18 20:59:00,46.9,61.5,30.24,North,0,6.5,9.4,78,0.00,,,0.00,,2018-01-19 01:59:00,
2018-01-18 21:04:00,46.0,61.5,30.24,North,0,14.0,17.0,78,0.00,,,0.00,,2018-01-19 02:04:00,